STARLINK-11297 [DTC] (61060 NORAD) Tracking and Keplerian Element Data

This shows tracking and keplerian element data for the satellite.

Feedback or suggestion? Click here.




ElementValue
Catalog61060
NameSTARLINK-11297 [DTC]
Epoch Orbit481
Epoch Day286.49770478
Epoch Year2024
RAAN321.3185
Inclination53.158
Eccentricity0.0001047
Argument of Perigee89.9604
Mean Anonmoly270.1534
Mean Motion15.69711588
Decay Rate0.00040533
L11 61060U 24164L 24286.49770478 .00040533 00000+0 33776-3 0 9991
L22 61060 53.1580 321.3185 0001047 89.9604 270.1534 15.69711588 4814



Live tracking and technical data element details for STARLINK-11297 [DTC] (NORAD 61060). STARLINK-11297 [DTC] can be tracked NOW for your location showing map with azimuth and elevation plus other details from your city location.







IsCatalogInMostPopularTable: catalog: 61060, numindb: 24
Update: records affected: 1



GetName: 61060 STARLINK-11297 [DTC]

Hit Count: updated at: Wed, 04 Dec 2024 08:37:57 GMT